Kivalina, AK

3:25 AM AKDT on March 24, 2017 (GMT -0800)
Kivalina

Weather History for PAVL - April, 2014

Change the Weather History Date:

Saturday, April 5, 2014

  Actual Average (PAWN) Record (PAWN)
Temperature  
Mean Temperature 0 °F -  
Max Temperature 3 °F 19 °F 37 °F (2016)
Min Temperature -4 °F 4 °F -25 °F (2006)
Degree Days  
Heating Degree Days 66    
Moisture  
Dew Point -6 °F    
Average Humidity 76    
Maximum Humidity 85    
Minimum Humidity 69    
Precipitation  
Precipitation 0.00 in - - ()
Sea Level Pressure  
Sea Level Pressure 29.76 in    
Wind  
Wind Speed 25 mph (NNW)    
Max Wind Speed 32 mph    
Max Gust Speed 36 mph    
Visibility 3 miles    
Events Fog , Snow    
Averages and records for this station are not official NWS values.
T = Trace of Precipitation, MM = Missing Value Source: NWS Daily Summary

Daily Weather History Graph

Daily Weather History Graph

Search for Another Location

Airport or City:

Trip Planner

Search our weather history database for the weather conditions in past years. The results will help you decide how hot, cold, wet, or windy it might be!

Date:

Astronomy

Apr. 05, 2014 Rise Set
Actual Time 7:49 AM AKDT 10:13 PM AKDT
Civil Twilight 6:49 AM AKDT 11:15 PM AKDT
Nautical Twilight 5:22 AM AKDT 12:44 AM AKDT
Astronomical Twilight 3:33 AM AKDT 2:28 AM AKDT
Moon 10:10 AM AKDT (4/5) 5:31 AM AKDT (4/5)
Length of Visible Light 16h 25m
Length of Day
14h 23m
Waxing Crescent, 36% of the Moon is Illuminated
Apr 5
Waxing Crescent
Apr 7
First Quarter
Apr 14
Full
Apr 21
Last Quarter
Apr 28
New

Hourly Weather History & Observations

Time (AKDT) Temp. Windchill Dew Point Humidity Pressure Visibility Wind Dir Wind Speed Gust Speed Precip Events Conditions
12:04 AM -2.2 °F -28.8 °F -7.6 °F 78% 29.72 in 0.8 mi North 29.9 mph - N/A   Haze
12:23 AM -2.2 °F -27.1 °F -5.8 °F 85% 29.73 in 1.0 mi North 25.3 mph - N/A   Clear
12:38 AM -2.2 °F -29.6 °F -7.6 °F 78% 29.72 in 0.8 mi North 32.2 mph - N/A   Clear
12:53 AM -2.9 °F -30.2 °F -7.1 °F 82% 29.73 in 0.5 mi North 31.1 mph - 0.00 in Fog Light Freezing Fog
1:53 AM -2.9 °F -28.6 °F -7.1 °F 82% 29.74 in 0.8 mi North 26.5 mph 35.7 mph 0.00 in   Clear
2:48 AM -2.2 °F -27.1 °F -7.6 °F 78% 29.75 in 1.2 mi North 25.3 mph - 0.00 in   Haze
3:28 AM -2.2 °F -28.4 °F -7.6 °F 78% 29.74 in 0.8 mi North 28.8 mph - N/A   Haze
3:53 AM -2.9 °F -29.4 °F -7.1 °F 82% 29.75 in 1.0 mi NNW 28.8 mph - 0.00 in   Clear
4:53 AM -4.0 °F -29.6 °F -9.0 °F 79% 29.76 in 2.0 mi NNW 25.3 mph - N/A   Haze
5:08 AM -2.2 °F -26.7 °F -7.6 °F 78% 29.76 in 1.8 mi NNW 24.2 mph - N/A   Haze
5:16 AM -2.2 °F -26.2 °F -7.6 °F 78% 29.76 in 3.0 mi NNW 23.0 mph - N/A   Haze
5:34 AM -4.0 °F -29.6 °F -9.4 °F 78% 29.75 in 2.5 mi NNW 25.3 mph - N/A   Haze
5:53 AM -4.0 °F -28.1 °F -9.0 °F 79% 29.75 in 3.0 mi NNW 21.9 mph - N/A   Haze
6:17 AM -4.0 °F -27.0 °F -9.4 °F 78% 29.75 in 1.8 mi North 19.6 mph - N/A   Haze
6:53 AM -4.0 °F -29.1 °F -9.0 °F 79% 29.75 in 1.5 mi North 24.2 mph - N/A   Haze
7:15 AM -4.0 °F -27.0 °F -9.4 °F 78% 29.75 in 2.0 mi NNW 19.6 mph 31.1 mph N/A   Haze
7:53 AM -4.0 °F -28.6 °F -9.0 °F 79% 29.75 in 1.2 mi North 23.0 mph 26.5 mph N/A   Haze
8:49 AM -4.0 °F -28.6 °F -9.4 °F 78% 29.75 in 3.0 mi NNW 23.0 mph - N/A   Haze
9:11 AM -4.0 °F -30.0 °F -9.4 °F 78% 29.75 in 2.0 mi NNW 26.5 mph - N/A   Haze
9:35 AM -4.0 °F -28.1 °F -9.4 °F 78% 29.75 in 1.8 mi North 21.9 mph - N/A   Haze
9:42 AM -2.2 °F -26.2 °F -9.4 °F 71% 29.75 in 2.0 mi North 23.0 mph - N/A   Haze
9:53 AM -2.9 °F -27.6 °F -9.0 °F 75% 29.75 in 2.5 mi NNW 24.2 mph - N/A   Haze
10:15 AM -2.2 °F -25.2 °F -7.6 °F 78% 29.75 in 4.0 mi NW 20.7 mph - N/A   Haze
10:53 AM -0.9 °F -21.2 °F -8.0 °F 72% 29.76 in 10.0 mi NW 16.1 mph - N/A   Clear
11:30 AM -0.4 °F -24.3 °F -7.6 °F 72% 29.74 in 1.8 mi NNW 24.2 mph - N/A Snow Blowing Snow
11:39 AM -0.4 °F -22.8 °F -7.6 °F 72% 29.74 in 3.0 mi NNW 20.7 mph - N/A   Haze
11:53 AM -0.0 °F -19.4 °F -6.0 °F 76% 29.75 in 10.0 mi NW 15.0 mph - N/A   Clear
12:53 PM 1.9 °F -19.8 °F -6.0 °F 69% 29.77 in 6.0 mi NNW 20.7 mph - N/A   Haze
1:11 PM 1.4 °F -22.3 °F -5.8 °F 72% 29.77 in 2.0 mi NNW 25.3 mph - N/A   Haze
1:53 PM 1.9 °F -20.2 °F -5.1 °F 72% 29.76 in 3.0 mi NNW 21.9 mph - N/A   Haze
2:19 PM 3.2 °F -19.5 °F -4.0 °F 72% 29.76 in 1.8 mi North 24.2 mph - N/A Snow Blowing Snow
2:29 PM 3.2 °F -18.6 °F -4.0 °F 72% 29.76 in 3.0 mi NNW 21.9 mph - N/A   Haze
2:53 PM 3.9 °F -15.0 °F -2.9 °F 73% 29.77 in 5.0 mi NNW 16.1 mph - N/A   Haze
3:22 PM 3.2 °F -18.1 °F -4.0 °F 72% 29.77 in 3.0 mi NNW 20.7 mph - N/A   Haze
3:53 PM 3.9 °F -18.1 °F -2.9 °F 73% 29.78 in 4.0 mi NNW 23.0 mph - N/A   Haze
5:06 PM 3.2 °F -20.3 °F -4.0 °F 72% 29.78 in 1.8 mi NNW 26.5 mph - N/A   Haze
5:25 PM 3.2 °F -19.0 °F -2.2 °F 78% 29.78 in 2.5 mi NNW 23.0 mph - N/A   Haze
5:53 PM 3.9 °F -18.1 °F -2.9 °F 73% 29.78 in 2.5 mi NNW 23.0 mph - N/A   Haze
6:03 PM 3.2 °F -18.6 °F -2.2 °F 78% 29.79 in 3.0 mi NNW 21.9 mph - N/A   Haze
6:53 PM 3.9 °F -16.6 °F -2.9 °F 73% 29.78 in 3.0 mi North 19.6 mph - N/A   Haze
7:03 PM 3.2 °F -19.0 °F -2.2 °F 78% 29.77 in 2.5 mi North 23.0 mph - N/A   Haze
7:53 PM 3.9 °F -19.0 °F -2.9 °F 73% 29.79 in 2.5 mi NNW 25.3 mph - N/A   Haze
8:00 PM 3.2 °F -18.1 °F -4.0 °F 72% 29.79 in 4.0 mi NNW 20.7 mph - N/A   Haze
8:30 PM 1.4 °F -22.7 °F -4.0 °F 78% 29.78 in 1.8 mi NNW 26.5 mph - N/A   Haze
8:48 PM 1.4 °F -21.9 °F -5.8 °F 72% 29.78 in 3.0 mi NNW 24.2 mph - N/A   Haze
9:53 PM 1.0 °F -22.8 °F -6.0 °F 72% 29.80 in 2.5 mi NNW 25.3 mph - N/A   Haze
10:04 PM 1.4 °F -21.4 °F -5.8 °F 72% 29.79 in 3.0 mi North 23.0 mph - N/A   Haze
10:53 PM -0.0 °F -22.9 °F -7.1 °F 72% 29.80 in 7.0 mi NNW 21.9 mph - N/A   Clear
11:53 PM -0.0 °F -21.3 °F -7.1 °F 72% 29.82 in 10.0 mi North 18.4 mph - N/A   Clear